Flag for France Weather past 2 weeks in Limoges, France

Now
37 °F

Fog.


Feels Like: 35 °F
Forecast: 37 / 46 °F
Wind: 3 mph from South

Location: Limoges Airport

Current Time: Dec 26, 2014 at 8:18:54 PM

Latest Report: Dec 26, 2014 at 8:00 PM


Visibility: 0 mi

Pressure: 30.33 "Hg

Humidity: 93%

Dew point: 36 °F

Location of LimogesLocation

Historic Weather in Limoges — Graph

°F

Limoges temperature yesterday

Maximum temperature yesterday: 46 °F (at 1:30 PM)
Minimum temperature yesterday: 37 °F (at 9:00 PM)
Average temperature yesterday: 42 °F

Past Weeks' High & Low Weather Summary

 TemperatureHumidityPressure
High52 °F (Dec 18, 4:00 AM)100% (Dec 14, 6:30 PM)30.60 "Hg (Dec 14, 6:30 PM)
Low32 °F (Dec 22, 5:30 AM)53% (Dec 23, 10:00 AM)29.77 "Hg (Dec 13, 2:30 AM)
Average43 °F88%30.24 "Hg
* Reported Dec 11 7:00 PM — Dec 26 7:00 PM, Limoges, Weather by CustomWeather, © 2014

Note: Actual official high and low records may vary slightly from our data, if they occured in-between our weather recording intervals... More about our weather records

Advertising

Limoges weather history for previous 24 hours

 ConditionsComfort  
Time TempWeatherWind HumidityBarometerVisibility
7:00 PM
Dec 26
37 °FFog.3 mph93%30.33 "Hg0 mi
6:30 PM37 °FFog.1 mph100%30.36 "Hg0 mi
6:00 PM37 °FFog.3 mph100%30.36 "Hg0 mi
5:30 PM37 °FFog.2 mph100%30.36 "Hg0 mi
5:00 PM37 °FFog.3 mph100%30.39 "Hg0 mi
4:30 PM37 °FFog.2 mph100%30.39 "Hg1 mi
4:00 PM37 °FFog.3 mph93%30.39 "Hg1 mi
3:30 PM37 °FFog.5 mph93%30.39 "Hg1 mi
3:00 PM36 °FDense fog.3 mph100%30.42 "Hg1 mi
2:30 PM37 °FFog.3 mph93%30.42 "Hg0 mi
2:00 PM36 °FFog.2 mph100%30.45 "Hg0 mi
1:30 PM36 °FFog.2 mph100%30.45 "Hg0 mi
1:00 PM36 °FFog.3 mph93%30.45 "Hg0 mi
12:30 PM34 °FFog.2 mph100%30.48 "Hg0 mi
12:00 PM34 °FFog.3 mph100%30.48 "Hg0 mi
11:30 AM34 °FFog.3 mph100%30.51 "Hg0 mi
11:00 AM32 °FFog.3 mph100%30.51 "Hg0 mi
10:30 AM32 °FFog.3 mph100%30.51 "Hg0 mi
10:00 AM32 °FIce fog.5 mph100%30.51 "Hg0 mi
9:30 AM32 °FIce fog.5 mph93%30.48 "Hg0 mi
9:00 AM32 °FIce fog.3 mph93%30.51 "Hg0 mi
8:30 AM32 °FIce fog.5 mph100%30.48 "Hg0 mi
8:00 AM32 °FIce fog.2 mph100%30.48 "Hg0 mi
7:30 AM32 °FFog.No wind100%30.48 "Hg0 mi
7:00 AM32 °FFog.No wind100%30.48 "Hg0 mi
6:30 AM32 °FFog.No wind100%30.48 "Hg0 mi
6:00 AM32 °FFog.No wind100%30.48 "Hg0 mi
5:30 AM32 °FIce fog.No wind93%30.48 "Hg0 mi
5:00 AM32 °FFog.No wind93%30.48 "Hg0 mi
4:30 AM32 °FFog.No wind100%30.48 "Hg0 mi
3:30 AM34 °FFog.5 mph100%30.51 "Hg0 mi
3:00 AM36 °FDense fog.5 mph93%30.51 "Hg1 mi
2:30 AM36 °FFog.7 mph100%30.51 "Hg0 mi
2:00 AM37 °FFog.7 mph93%30.51 "Hg0 mi
1:30 AM36 °FLight fog.7 mph100%30.51 "HgN/A
1:00 AM37 °FClear.6 mph93%30.51 "HgN/A
12:30 AM37 °FClear.7 mph93%30.51 "HgN/A
12:00 AM37 °FClear.6 mph93%30.51 "HgN/A
11:30 PM
Dec 25
37 °FClear.7 mph93%30.54 "HgN/A
11:00 PM37 °FClear.7 mph93%30.51 "HgN/A
10:00 PM37 °FPassing clouds.6 mph87%30.51 "HgN/A
9:30 PM37 °FPassing clouds.5 mph93%30.51 "HgN/A
9:00 PM37 °FPassing clouds.6 mph93%30.51 "HgN/A
8:30 PM39 °FPassing clouds.5 mph87%30.51 "HgN/A
8:00 PM39 °FClear.5 mph87%30.51 "HgN/A
Weather by CustomWeather, © 2014

See weather overviewHow to use our weather pages